When you browse on this site, cookies collect data to enhance your experience and personalize the content and advertising you see.
Visit our Privacy Policy to learn more. By continuing to use the site, you agree to this use of cookies and data.
  • In Sweden
  • List of Countries
  • For 7 days
  • Water Temperature
  • Satellite Maps
  • Weather Map
  • Weather Widgets
  • user-avatar
    Login

    Hourly Weather Cardiff

    Today, 21 November, Wednesday

    Time Temperature Precipitation Wind Pressure Humidity
    00:00 0°C° 0 mm 4 mps 752 mmHg 92%
    01:00 +1°C° 0 mm 3 mps 752 mmHg 92%
    02:00 +1°C° 0 mm 3 mps 752 mmHg 92%
    03:00 +1°C° 0 mm 3 mps 751 mmHg 93%
    04:00 +2°C° 0 mm 2 mps 751 mmHg 93%
    05:00 +1°C° 0 mm 2 mps 752 mmHg 93%
    06:00 -1°C° 0 mm 2 mps 752 mmHg 93%
    07:00 0°C° 0 mm 3 mps 752 mmHg 92%
    08:00 0°C° 0 mm 3 mps 753 mmHg 92%
    09:00 +1°C° 0 mm 3 mps 753 mmHg 91%
    10:00 +2°C° 0 mm 3 mps 754 mmHg 87%
    11:00 +4°C° 0 mm 4 mps 754 mmHg 84%
    12:00 +5°C° 0 mm 4 mps 755 mmHg 81%
    13:00 +5°C° 0.1 mm 4 mps 755 mmHg 81%
    14:00 +6°C° 0.1 mm 4 mps 756 mmHg 81%
    15:00 +6°C° 0.1 mm 4 mps 756 mmHg 80%
    16:00 +5°C° 0.1 mm 4 mps 757 mmHg 84%
    17:00 +4°C° 0.1 mm 4 mps 757 mmHg 87%
    18:00 +3°C° 0.1 mm 5 mps 758 mmHg 90%
    19:00 +3°C° 0.1 mm 5 mps 759 mmHg 90%
    20:00 +3°C° 0.1 mm 5 mps 759 mmHg 90%
    21:00 +3°C° 0.1 mm 5 mps 760 mmHg 91%
    22:00 +2°C° 0 mm 5 mps 760 mmHg 90%
    23:00 +2°C° 0 mm 5 mps 760 mmHg 90%

    Tomorrow, 22 November, Thursday

    Time Temperature Precipitation Wind Pressure Humidity
    00:00 +1°C° 0 mm 5 mps 760 mmHg 89%
    01:00 +1°C° 0 mm 5 mps 760 mmHg 89%
    02:00 0°C° 0 mm 5 mps 760 mmHg 90%
    03:00 0°C° 0 mm 5 mps 761 mmHg 90%
    04:00 -1°C° 0 mm 5 mps 761 mmHg 90%
    05:00 -1°C° 0 mm 5 mps 761 mmHg 90%
    06:00 -1°C° 0 mm 5 mps 761 mmHg 89%
    07:00 -1°C° 0 mm 5 mps 761 mmHg 88%
    08:00 -1°C° 0 mm 5 mps 761 mmHg 87%
    09:00 0°C° 0 mm 5 mps 761 mmHg 86%
    10:00 +1°C° 0 mm 5 mps 760 mmHg 84%
    11:00 +2°C° 0 mm 5 mps 760 mmHg 82%
    12:00 +5°C° 0 mm 5 mps 760 mmHg 80%
    13:00 +5°C° 0 mm 5 mps 760 mmHg 82%
    14:00 +5°C° 0 mm 4 mps 759 mmHg 84%
    15:00 +5°C° 0 mm 4 mps 759 mmHg 86%
    16:00 +4°C° 0 mm 4 mps 759 mmHg 89%
    17:00 +3°C° 0 mm 4 mps 759 mmHg 92%
    18:00 +3°C° 0 mm 4 mps 759 mmHg 94%
    19:00 +3°C° 0 mm 4 mps 759 mmHg 94%
    20:00 +3°C° 0 mm 4 mps 759 mmHg 94%
    21:00 +3°C° 0 mm 4 mps 759 mmHg 94%
    22:00 +1°C° 0 mm 4 mps 759 mmHg 94%
    23:00 +1°C° 0 mm 4 mps 759 mmHg 93%

    Day after tomorrow, 23 November, Friday

    Time Temperature Precipitation Wind Pressure Humidity
    00:00 +1°C° 0 mm 4 mps 759 mmHg 93%
    01:00 +3°C° 0 mm 4 mps 759 mmHg 94%
    02:00 +3°C° 0 mm 4 mps 758 mmHg 94%
    03:00 +3°C° 0 mm 4 mps 758 mmHg 94%
    04:00 +3°C° 0 mm 4 mps 758 mmHg 94%
    05:00 +3°C° 0 mm 4 mps 758 mmHg 95%
    06:00 +4°C° 0 mm 4 mps 757 mmHg 95%
    07:00 +4°C° 0.1 mm 4 mps 757 mmHg 94%
    08:00 +5°C° 0.1 mm 5 mps 757 mmHg 94%
    09:00 +5°C° 0.1 mm 5 mps 757 mmHg 94%
    10:00 +6°C° 0 mm 5 mps 757 mmHg 91%
    11:00 +7°C° 0 mm 5 mps 757 mmHg 89%
    12:00 +8°C° 0 mm 5 mps 756 mmHg 87%
    13:00 +8°C° 0 mm 5 mps 756 mmHg 87%
    14:00 +8°C° 0 mm 5 mps 756 mmHg 88%
    15:00 +8°C° 0 mm 5 mps 755 mmHg 88%
    16:00 +8°C° 0 mm 5 mps 755 mmHg 90%
    17:00 +7°C° 0 mm 5 mps 755 mmHg 91%
    18:00 +7°C° 0 mm 5 mps 755 mmHg 93%
    19:00 +7°C° 0.1 mm 5 mps 755 mmHg 93%
    20:00 +7°C° 0.1 mm 5 mps 756 mmHg 93%
    21:00 +7°C° 0.1 mm 5 mps 756 mmHg 94%
    22:00 +7°C° 0.2 mm 5 mps 755 mmHg 94%
    23:00 +6°C° 0.2 mm 4 mps 755 mmHg 95%

    24 November, Saturday

    Time Temperature Precipitation Wind Pressure Humidity
    00:00 +6°C° 0.2 mm 4 mps 755 mmHg 96%
    01:00 +6°C° 0.2 mm 4 mps 755 mmHg 96%
    02:00 +6°C° 0.2 mm 4 mps 755 mmHg 96%
    03:00 +6°C° 0.2 mm 4 mps 755 mmHg 96%
    04:00 +6°C° 0.4 mm 4 mps 755 mmHg 96%
    05:00 +6°C° 0.4 mm 4 mps 755 mmHg 96%
    06:00 +6°C° 0.4 mm 4 mps 755 mmHg 95%
    07:00 +6°C° 0.1 mm 4 mps 755 mmHg 95%
    08:00 +6°C° 0.1 mm 4 mps 755 mmHg 94%
    09:00 +6°C° 0.1 mm 4 mps 755 mmHg 94%
    10:00 +7°C° 0 mm 4 mps 755 mmHg 91%
    11:00 +8°C° 0 mm 4 mps 755 mmHg 88%
    12:00 +10°C° 0 mm 4 mps 755 mmHg 86%
    13:00 +8°C° 0.1 mm 4 mps 755 mmHg 86%
    14:00 +8°C° 0.1 mm 4 mps 755 mmHg 86%
    15:00 +8°C° 0.1 mm 4 mps 755 mmHg 87%
    16:00 +8°C° 0 mm 4 mps 755 mmHg 88%
    17:00 +7°C° 0 mm 4 mps 755 mmHg 90%
    18:00 +7°C° 0 mm 5 mps 755 mmHg 92%
    19:00 +7°C° 0 mm 5 mps 755 mmHg 92%
    20:00 +7°C° 0 mm 6 mps 755 mmHg 92%
    21:00 +7°C° 0 mm 6 mps 755 mmHg 92%
    22:00 +6°C° 0.3 mm 7 mps 755 mmHg 92%
    23:00 +6°C° 0.3 mm 7 mps 755 mmHg 92%

    25 November, Sunday

    Time Temperature Precipitation Wind Pressure Humidity
    00:00 +6°C° 0.3 mm 8 mps 755 mmHg 91%
    01:00 +6°C° 0.6 mm 8 mps 754 mmHg 91%
    02:00 +6°C° 0.6 mm 9 mps 754 mmHg 91%
    03:00 +6°C° 0.6 mm 9 mps 753 mmHg 91%
    04:00 +6°C° 0.2 mm 9 mps 753 mmHg 91%
    05:00 +6°C° 0.2 mm 10 mps 753 mmHg 90%
    06:00 +5°C° 0.2 mm 10 mps 752 mmHg 90%
    07:00 +5°C° 0.4 mm 10 mps 752 mmHg 90%
    08:00 +6°C° 0.4 mm 10 mps 752 mmHg 89%
    09:00 +6°C° 0.4 mm 10 mps 752 mmHg 89%
    10:00 +6°C° 0.3 mm 10 mps 752 mmHg 88%
    11:00 +6°C° 0.3 mm 10 mps 751 mmHg 87%
    12:00 +6°C° 0.3 mm 10 mps 751 mmHg 87%
    13:00 +6°C° 0.2 mm 10 mps 751 mmHg 87%
    14:00 +6°C° 0.2 mm 10 mps 750 mmHg 87%
    15:00 +6°C° 0.2 mm 10 mps 750 mmHg 88%
    16:00 +6°C° 0.1 mm 10 mps 749 mmHg 88%
    17:00 +6°C° 0.1 mm 10 mps 749 mmHg 88%
    18:00 +6°C° 0.1 mm 10 mps 748 mmHg 88%
    19:00 +6°C° 0.1 mm 10 mps 748 mmHg 88%
    20:00 +6°C° 0.1 mm 10 mps 747 mmHg 87%
    21:00 +6°C° 0.1 mm 10 mps 747 mmHg 87%
    22:00 +6°C° 0.2 mm 10 mps 746 mmHg 87%
    23:00 +6°C° 0.2 mm 10 mps 746 mmHg 87%

    26 November, Monday

    Time Temperature Precipitation Wind Pressure Humidity
    00:00 +6°C° 0.2 mm 10 mps 745 mmHg 88%
    01:00 +6°C° 0.5 mm 10 mps 744 mmHg 89%
    02:00 +6°C° 0.5 mm 10 mps 744 mmHg 90%
    03:00 +6°C° 0.5 mm 9 mps 743 mmHg 91%
    04:00 +6°C° 1.1 mm 9 mps 743 mmHg 91%
    05:00 +6°C° 1.1 mm 8 mps 743 mmHg 91%
    06:00 +7°C° 1.1 mm 8 mps 742 mmHg 92%
    07:00 +7°C° 0.5 mm 8 mps 742 mmHg 92%
    08:00 +8°C° 0.5 mm 7 mps 742 mmHg 92%
    09:00 +8°C° 0.5 mm 7 mps 743 mmHg 92%
    10:00 +8°C° 0.3 mm 7 mps 743 mmHg 90%
    11:00 +9°C° 0.3 mm 6 mps 743 mmHg 89%
    12:00 +9°C° 0.3 mm 5 mps 743 mmHg 87%
    13:00 +9°C° 0.2 mm 5 mps 743 mmHg 88%
    14:00 +10°C° 0.2 mm 4 mps 743 mmHg 88%
    15:00 +10°C° 0.2 mm 4 mps 743 mmHg 89%
    16:00 +9°C° 0.1 mm 3 mps 743 mmHg 90%
    17:00 +8°C° 0.1 mm 3 mps 744 mmHg 92%
    18:00 +8°C° 0.1 mm 3 mps 744 mmHg 93%
    19:00 +7°C° 0 mm 2 mps 745 mmHg 94%
    20:00 +7°C° 0 mm 2 mps 745 mmHg 94%
    21:00 +7°C° 0 mm 2 mps 746 mmHg 94%
    22:00 +7°C° 0 mm 2 mps 746 mmHg 94%
    23:00 +7°C° 0 mm 2 mps 747 mmHg 94%
    Show more